Time,TemperatureF,DewpointF,PressureIn,WindDirection,WindDirectionDegrees,WindSpeedMPH,WindSpeedGustMPH,Humidity,HourlyPrecipIn,Conditions,Clouds,dailyrainin,SoftwareType,DateUTC
2013-01-04 00:04:00,26.0,0.0,30.25,NW,318,7.0,12.0,32,-99.99,,,-99.99,,2013-01-04 08:04:00,
2013-01-04 00:12:00,26.0,0.0,30.25,West,277,7.0,7.0,30,-99.99,,,-99.99,,2013-01-04 08:12:00,
2013-01-04 00:20:00,25.0,0.0,30.25,WNW,303,7.0,8.0,31,-99.99,,,-99.99,,2013-01-04 08:20:00,
2013-01-04 00:28:00,25.0,0.0,30.25,NW,306,7.0,9.0,34,-99.99,,,-99.99,,2013-01-04 08:28:00,
2013-01-04 00:36:00,25.0,0.0,30.25,NW,309,7.0,7.0,31,-99.99,,,-99.99,,2013-01-04 08:36:00,
2013-01-04 00:44:00,25.0,0.0,30.25,NW,320,8.0,12.0,31,-99.99,,,-99.99,,2013-01-04 08:44:00,
2013-01-04 00:52:00,25.0,0.0,30.25,WNW,295,10.0,13.0,33,-99.99,,,-99.99,,2013-01-04 08:52:00,
2013-01-04 01:00:00,25.0,0.0,30.25,NW,323,5.0,12.0,32,-99.99,,,-99.99,,2013-01-04 09:00:00,
2013-01-04 01:08:00,25.0,0.0,30.25,WNW,301,7.0,8.0,31,-99.99,,,-99.99,,2013-01-04 09:08:00,
2013-01-04 01:16:00,24.0,0.0,30.25,NW,311,9.0,12.0,31,-99.99,,,-99.99,,2013-01-04 09:16:00,
2013-01-04 01:24:00,24.0,0.0,30.25,NW,316,3.0,3.0,32,-99.99,,,-99.99,,2013-01-04 09:24:00,
2013-01-04 01:32:00,24.0,0.0,30.26,NW,313,1.0,1.0,32,-99.99,,,-99.99,,2013-01-04 09:32:00,
2013-01-04 01:40:00,24.0,0.0,30.26,NW,319,8.0,8.0,34,-99.99,,,-99.99,,2013-01-04 09:40:00,
2013-01-04 01:48:00,24.0,0.0,30.26,NW,308,0.0,0.0,34,-99.99,,,-99.99,,2013-01-04 09:48:00,
2013-01-04 01:56:00,25.0,0.0,30.26,NW,317,0.0,1.0,35,-99.99,,,-99.99,,2013-01-04 09:56:00,
2013-01-04 02:04:00,25.0,0.0,30.26,NW,311,2.0,2.0,31,-99.99,,,-99.99,,2013-01-04 10:04:00,
2013-01-04 02:12:00,25.0,0.0,30.26,WNW,296,0.0,0.0,31,-99.99,,,-99.99,,2013-01-04 10:12:00,
2013-01-04 02:20:00,24.0,0.0,30.26,WNW,303,0.0,5.0,32,-99.99,,,-99.99,,2013-01-04 10:20:00,
2013-01-04 02:28:00,24.0,0.0,30.26,NW,306,2.0,2.0,32,-99.99,,,-99.99,,2013-01-04 10:28:00,
2013-01-04 02:36:00,24.0,0.0,30.26,WNW,297,1.0,2.0,34,-99.99,,,-99.99,,2013-01-04 10:36:00,
2013-01-04 02:44:00,24.0,0.0,30.26,WNW,302,0.0,0.0,35,-99.99,,,-99.99,,2013-01-04 10:44:00,
2013-01-04 02:52:00,23.0,0.0,30.26,WNW,298,0.0,0.0,33,-99.99,,,-99.99,,2013-01-04 10:52:00,
2013-01-04 03:00:00,23.0,0.0,30.26,NW,309,0.0,0.0,34,-99.99,,,-99.99,,2013-01-04 11:00:00,
2013-01-04 03:08:00,24.0,0.0,30.26,WNW,297,0.0,0.0,34,-99.99,,,-99.99,,2013-01-04 11:08:00,
2013-01-04 03:16:00,24.0,0.0,30.26,NW,304,0.0,0.0,36,-99.99,,,-99.99,,2013-01-04 11:16:00,
2013-01-04 03:24:00,23.0,0.0,30.26,NW,321,0.0,0.0,35,-99.99,,,-99.99,,2013-01-04 11:24:00,
2013-01-04 03:32:00,23.0,0.0,30.26,WNW,302,0.0,0.0,38,-99.99,,,-99.99,,2013-01-04 11:32:00,
2013-01-04 03:40:00,23.0,0.0,30.26,West,279,0.0,2.0,36,-99.99,,,-99.99,,2013-01-04 11:40:00,
2013-01-04 03:48:00,23.0,0.0,30.26,NW,306,0.0,0.0,38,-99.99,,,-99.99,,2013-01-04 11:48:00,
2013-01-04 03:56:00,23.0,0.0,30.26,West,264,0.0,2.0,37,-99.99,,,-99.99,,2013-01-04 11:56:00,
2013-01-04 04:04:00,23.0,0.0,30.25,NW,306,0.0,0.0,36,-99.99,,,-99.99,,2013-01-04 12:04:00,
2013-01-04 04:12:00,23.0,0.0,30.25,NW,314,0.0,0.0,37,-99.99,,,-99.99,,2013-01-04 12:12:00,
2013-01-04 04:20:00,22.0,0.0,30.25,NW,322,0.0,0.0,36,-99.99,,,-99.99,,2013-01-04 12:20:00,
2013-01-04 04:28:00,22.0,0.0,30.25,NW,320,0.0,5.0,39,-99.99,,,-99.99,,2013-01-04 12:28:00,
2013-01-04 04:36:00,22.0,0.0,30.25,NW,320,0.0,0.0,36,-99.99,,,-99.99,,2013-01-04 12:36:00,
2013-01-04 04:44:00,22.0,0.0,30.25,NW,320,0.0,0.0,38,-99.99,,,-99.99,,2013-01-04 12:44:00,
2013-01-04 04:52:00,22.0,0.0,30.25,NW,316,0.0,0.0,38,-99.99,,,-99.99,,2013-01-04 12:52:00,
2013-01-04 05:00:00,21.0,0.0,30.25,NW,318,0.0,0.0,37,-99.99,,,-99.99,,2013-01-04 13:00:00,
2013-01-04 05:08:00,22.0,0.0,30.26,NW,304,0.0,0.0,40,-99.99,,,-99.99,,2013-01-04 13:08:00,
2013-01-04 05:16:00,22.0,0.0,30.26,West,273,0.0,0.0,37,-99.99,,,-99.99,,2013-01-04 13:16:00,
2013-01-04 05:24:00,22.0,0.0,30.26,NW,323,0.0,0.0,40,-99.99,,,-99.99,,2013-01-04 13:24:00,
2013-01-04 05:32:00,22.0,0.0,30.26,WNW,300,0.0,0.0,38,-99.99,,,-99.99,,2013-01-04 13:32:00,
2013-01-04 05:40:00,22.0,0.0,30.26,WNW,300,0.0,0.0,40,-99.99,,,-99.99,,2013-01-04 13:40:00,
2013-01-04 05:48:00,21.0,0.0,30.27,NW,304,0.0,0.0,39,-99.99,,,-99.99,,2013-01-04 13:48:00,
2013-01-04 05:56:00,22.0,0.0,30.27,NW,312,0.0,0.0,41,-99.99,,,-99.99,,2013-01-04 13:56:00,
2013-01-04 06:04:00,22.0,0.0,30.27,West,279,0.0,0.0,39,-99.99,,,-99.99,,2013-01-04 14:04:00,
2013-01-04 06:12:00,22.0,0.0,30.27,NW,312,0.0,0.0,40,-99.99,,,-99.99,,2013-01-04 14:12:00,
2013-01-04 06:20:00,22.0,0.0,30.27,WNW,300,0.0,1.0,40,-99.99,,,-99.99,,2013-01-04 14:20:00,
2013-01-04 06:28:00,21.0,0.0,30.27,SW,215,0.0,0.0,39,-99.99,,,-99.99,,2013-01-04 14:28:00,
2013-01-04 06:36:00,21.0,0.0,30.27,West,273,2.0,2.0,43,-99.99,,,-99.99,,2013-01-04 14:36:00,
2013-01-04 06:44:00,21.0,0.0,30.27,WSW,251,2.0,2.0,39,-99.99,,,-99.99,,2013-01-04 14:44:00,
2013-01-04 06:52:00,21.0,0.0,30.28,NW,319,0.0,0.0,40,-99.99,,,-99.99,,2013-01-04 14:52:00,
2013-01-04 07:00:00,21.0,0.0,30.28,NW,311,0.0,0.0,39,-99.99,,,-99.99,,2013-01-04 15:00:00,
2013-01-04 07:08:00,20.0,0.0,30.28,WNW,298,0.0,0.0,41,-99.99,,,-99.99,,2013-01-04 15:08:00,
2013-01-04 07:16:00,20.0,0.0,30.28,NW,306,0.0,0.0,40,-99.99,,,-99.99,,2013-01-04 15:16:00,
2013-01-04 07:24:00,20.0,0.0,30.28,West,268,0.0,0.0,42,-99.99,,,-99.99,,2013-01-04 15:24:00,
2013-01-04 07:32:00,22.0,0.0,30.28,West,275,0.0,6.0,39,-99.99,,,-99.99,,2013-01-04 15:32:00,
2013-01-04 07:40:00,23.0,0.0,30.29,NW,321,0.0,0.0,38,-99.99,,,-99.99,,2013-01-04 15:40:00,
2013-01-04 07:48:00,25.0,0.0,30.29,NW,306,0.0,0.0,35,-99.99,,,-99.99,,2013-01-04 15:48:00,
2013-01-04 07:56:00,27.0,0.0,30.29,West,260,0.0,0.0,35,-99.99,,,-99.99,,2013-01-04 15:56:00,
2013-01-04 08:04:00,28.0,0.0,30.30,NW,304,0.0,0.0,35,-99.99,,,-99.99,,2013-01-04 16:04:00,
2013-01-04 08:12:00,30.0,0.0,30.30,NW,320,6.0,6.0,33,-99.99,,,-99.99,,2013-01-04 16:12:00,
2013-01-04 08:20:00,32.0,0.0,30.30,NW,322,0.0,5.0,30,-99.99,,,-99.99,,2013-01-04 16:20:00,
2013-01-04 08:28:00,34.0,0.0,30.31,NW,320,8.0,8.0,27,-99.99,,,-99.99,,2013-01-04 16:28:00,
2013-01-04 08:36:00,35.0,0.0,30.31,NW,323,7.0,7.0,26,-99.99,,,-99.99,,2013-01-04 16:36:00,
2013-01-04 08:44:00,36.0,0.0,30.31,NW,316,1.0,1.0,28,-99.99,,,-99.99,,2013-01-04 16:44:00,
2013-01-04 08:52:00,39.0,0.0,30.31,NW,317,2.0,3.0,24,-99.99,,,-99.99,,2013-01-04 16:52:00,
2013-01-04 09:00:00,40.0,0.0,30.31,NW,314,0.0,0.0,22,-99.99,,,-99.99,,2013-01-04 17:00:00,
2013-01-04 09:08:00,41.0,0.0,30.31,NW,321,0.0,0.0,23,-99.99,,,-99.99,,2013-01-04 17:08:00,
2013-01-04 09:16:00,43.0,0.0,30.32,NW,322,0.0,0.0,22,-99.99,,,-99.99,,2013-01-04 17:16:00,
2013-01-04 09:25:00,43.0,0.0,30.32,WNW,303,0.0,0.0,22,-99.99,,,-99.99,,2013-01-04 17:25:00,
2013-01-04 09:32:00,45.0,0.0,30.32,NW,323,0.0,0.0,19,-99.99,,,-99.99,,2013-01-04 17:32:00,
2013-01-04 09:40:00,47.0,0.0,30.33,NNW,327,0.0,0.0,17,-99.99,,,-99.99,,2013-01-04 17:40:00,
2013-01-04 09:48:00,47.0,0.0,30.33,NW,325,0.0,0.0,19,-99.99,,,-99.99,,2013-01-04 17:48:00,
2013-01-04 09:56:00,47.0,0.0,30.32,NW,324,0.0,0.0,20,-99.99,,,-99.99,,2013-01-04 17:56:00,
2013-01-04 10:04:00,46.0,0.0,30.32,NNW,334,0.0,0.0,20,-99.99,,,-99.99,,2013-01-04 18:04:00,
2013-01-04 10:12:00,46.0,0.0,30.32,SE,139,0.0,0.0,17,-99.99,,,-99.99,,2013-01-04 18:12:00,
2013-01-04 10:20:00,48.0,0.0,30.32,NNW,333,0.0,0.0,17,-99.99,,,-99.99,,2013-01-04 18:20:00,
2013-01-04 10:28:00,49.0,0.0,30.32,NNW,334,0.0,1.0,19,-99.99,,,-99.99,,2013-01-04 18:28:00,
2013-01-04 10:36:00,48.0,0.0,30.32,NNW,335,1.0,2.0,21,-99.99,,,-99.99,,2013-01-04 18:36:00,
2013-01-04 10:44:00,48.0,0.0,30.31,NNW,334,2.0,2.0,19,-99.99,,,-99.99,,2013-01-04 18:44:00,
2013-01-04 10:52:00,48.0,0.0,30.30,NNW,336,0.0,0.0,19,-99.99,,,-99.99,,2013-01-04 18:52:00,
2013-01-04 11:00:00,49.0,0.0,30.29,NNW,333,0.0,0.0,17,-99.99,,,-99.99,,2013-01-04 19:00:00,
2013-01-04 11:08:00,48.0,0.0,30.29,SSW,199,7.0,7.0,20,-99.99,,,-99.99,,2013-01-04 19:08:00,
2013-01-04 11:16:00,48.0,0.0,30.28,SSW,194,7.0,7.0,17,-99.99,,,-99.99,,2013-01-04 19:16:00,
2013-01-04 11:24:00,49.0,0.0,30.28,ESE,118,0.0,0.0,19,-99.99,,,-99.99,,2013-01-04 19:24:00,
2013-01-04 11:32:00,50.0,0.0,30.27,NNW,342,0.0,0.0,16,-99.99,,,-99.99,,2013-01-04 19:32:00,
2013-01-04 11:40:00,50.0,0.0,30.27,NNW,338,1.0,1.0,16,-99.99,,,-99.99,,2013-01-04 19:40:00,
2013-01-04 11:48:00,51.0,0.0,30.27,NNW,337,0.0,0.0,17,-99.99,,,-99.99,,2013-01-04 19:48:00,
2013-01-04 11:56:00,51.0,0.0,30.26,NNW,336,2.0,2.0,15,-99.99,,,-99.99,,2013-01-04 19:56:00,
2013-01-04 12:04:00,51.0,0.0,30.26,NNW,338,1.0,1.0,17,-99.99,,,-99.99,,2013-01-04 20:04:00,
2013-01-04 12:12:00,50.0,0.0,30.25,SE,135,13.0,13.0,16,-99.99,,,-99.99,,2013-01-04 20:12:00,
2013-01-04 12:20:00,50.0,0.0,30.25,South,190,12.0,12.0,20,-99.99,,,-99.99,,2013-01-04 20:20:00,
2013-01-04 12:28:00,50.0,0.0,30.25,SE,133,10.0,10.0,18,-99.99,,,-99.99,,2013-01-04 20:28:00,
2013-01-04 12:36:00,50.0,0.0,30.24,NNW,339,2.0,2.0,16,-99.99,,,-99.99,,2013-01-04 20:36:00,
2013-01-04 12:44:00,50.0,0.0,30.23,SE,145,9.0,9.0,19,-99.99,,,-99.99,,2013-01-04 20:44:00,
2013-01-04 12:52:00,51.0,0.0,30.23,NE,35,0.0,0.0,15,-99.99,,,-99.99,,2013-01-04 20:52:00,
2013-01-04 13:00:00,51.0,0.0,30.22,SE,132,1.0,7.0,16,-99.99,,,-99.99,,2013-01-04 21:00:00,
2013-01-04 13:08:00,52.0,0.0,30.22,NNW,340,1.0,1.0,16,-99.99,,,-99.99,,2013-01-04 21:08:00,
2013-01-04 13:16:00,51.0,0.0,30.22,SSW,205,8.0,9.0,18,-99.99,,,-99.99,,2013-01-04 21:16:00,
2013-01-04 13:24:00,52.0,0.0,30.22,East,85,0.0,0.0,17,-99.99,,,-99.99,,2013-01-04 21:24:00,
2013-01-04 13:32:00,52.0,0.0,30.22,North,1,0.0,0.0,18,-99.99,,,-99.99,,2013-01-04 21:32:00,
2013-01-04 13:40:00,52.0,0.0,30.22,NNW,339,2.0,2.0,14,-99.99,,,-99.99,,2013-01-04 21:40:00,
2013-01-04 13:48:00,52.0,0.0,30.21,NNW,337,2.0,2.0,16,-99.99,,,-99.99,,2013-01-04 21:48:00,
2013-01-04 13:56:00,52.0,0.0,30.21,East,82,0.0,0.0,16,-99.99,,,-99.99,,2013-01-04 21:56:00,
2013-01-04 14:04:00,52.0,0.0,30.21,North,1,0.0,0.0,14,-99.99,,,-99.99,,2013-01-04 22:04:00,
2013-01-04 14:12:00,52.0,0.0,30.21,SE,126,0.0,0.0,14,-99.99,,,-99.99,,2013-01-04 22:12:00,
2013-01-04 14:20:00,52.0,0.0,30.21,SE,141,0.0,0.0,13,-99.99,,,-99.99,,2013-01-04 22:20:00,
2013-01-04 14:28:00,52.0,0.0,30.21,SW,225,5.0,5.0,13,-99.99,,,-99.99,,2013-01-04 22:28:00,
2013-01-04 14:36:00,52.0,0.0,30.21,SW,228,9.0,9.0,13,-99.99,,,-99.99,,2013-01-04 22:36:00,
2013-01-04 14:44:00,52.0,0.0,30.21,SW,215,0.0,0.0,14,-99.99,,,-99.99,,2013-01-04 22:44:00,
2013-01-04 14:52:00,52.0,0.0,30.21,NNW,337,0.0,0.0,13,-99.99,,,-99.99,,2013-01-04 22:52:00,
2013-01-04 15:00:00,52.0,0.0,30.21,South,183,0.0,0.0,15,-99.99,,,-99.99,,2013-01-04 23:00:00,
2013-01-04 15:08:00,52.0,0.0,30.21,ENE,73,0.0,0.0,17,-99.99,,,-99.99,,2013-01-04 23:08:00,
2013-01-04 15:16:00,52.0,0.0,30.21,East,90,0.0,0.0,13,-99.99,,,-99.99,,2013-01-04 23:16:00,
2013-01-04 15:24:00,52.0,0.0,30.21,NNW,340,0.0,2.0,15,-99.99,,,-99.99,,2013-01-04 23:24:00,
2013-01-04 15:32:00,52.0,0.0,30.21,NNE,26,0.0,0.0,17,-99.99,,,-99.99,,2013-01-04 23:32:00,
2013-01-04 15:40:00,52.0,0.0,30.21,NE,37,0.0,0.0,14,-99.99,,,-99.99,,2013-01-04 23:40:00,
2013-01-04 15:48:00,51.0,0.0,30.21,SE,138,0.0,0.0,14,-99.99,,,-99.99,,2013-01-04 23:48:00,
2013-01-04 15:56:00,51.0,0.0,30.21,ESE,118,0.0,0.0,15,-99.99,,,-99.99,,2013-01-04 23:56:00,
2013-01-04 16:04:00,50.0,0.0,30.21,East,98,0.0,0.0,16,-99.99,,,-99.99,,2013-01-05 00:04:00,
2013-01-04 16:12:00,50.0,0.0,30.21,East,98,0.0,0.0,16,-99.99,,,-99.99,,2013-01-05 00:12:00,
2013-01-04 16:20:00,50.0,0.0,30.21,ESE,110,0.0,0.0,19,-99.99,,,-99.99,,2013-01-05 00:20:00,
2013-01-04 16:28:00,49.0,0.0,30.21,ENE,73,0.0,0.0,16,-99.99,,,-99.99,,2013-01-05 00:28:00,
2013-01-04 16:36:00,49.0,0.0,30.20,NE,43,0.0,0.0,16,-99.99,,,-99.99,,2013-01-05 00:36:00,
2013-01-04 16:44:00,48.0,0.0,30.20,NE,34,2.0,2.0,16,-99.99,,,-99.99,,2013-01-05 00:44:00,
2013-01-04 16:52:00,48.0,0.0,30.21,NNW,338,0.0,1.0,18,-99.99,,,-99.99,,2013-01-05 00:52:00,
2013-01-04 17:00:00,46.0,0.0,30.20,NNW,337,0.0,0.0,20,-99.99,,,-99.99,,2013-01-05 01:00:00,
2013-01-04 17:08:00,45.0,0.0,30.21,NNW,336,0.0,0.0,21,-99.99,,,-99.99,,2013-01-05 01:08:00,
2013-01-04 17:16:00,45.0,0.0,30.21,NNW,336,5.0,5.0,19,-99.99,,,-99.99,,2013-01-05 01:16:00,
2013-01-04 17:24:00,45.0,0.0,30.21,NNW,338,0.0,0.0,20,-99.99,,,-99.99,,2013-01-05 01:24:00,
2013-01-04 17:32:00,44.0,0.0,30.21,NNW,337,0.0,0.0,20,-99.99,,,-99.99,,2013-01-05 01:32:00,
2013-01-04 17:40:00,42.0,0.0,30.21,NW,315,0.0,0.0,20,-99.99,,,-99.99,,2013-01-05 01:40:00,
2013-01-04 17:48:00,42.0,0.0,30.22,NW,312,8.0,8.0,21,-99.99,,,-99.99,,2013-01-05 01:48:00,
2013-01-04 17:56:00,41.0,0.0,30.22,NW,313,10.0,10.0,21,-99.99,,,-99.99,,2013-01-05 01:56:00,
2013-01-04 18:04:00,41.0,0.0,30.22,NW,321,9.0,9.0,21,-99.99,,,-99.99,,2013-01-05 02:04:00,
2013-01-04 18:12:00,40.0,0.0,30.22,NW,305,8.0,8.0,21,-99.99,,,-99.99,,2013-01-05 02:12:00,
2013-01-04 18:20:00,39.0,0.0,30.22,WNW,289,8.0,9.0,24,-99.99,,,-99.99,,2013-01-05 02:20:00,
2013-01-04 18:28:00,38.0,0.0,30.23,WNW,297,10.0,10.0,24,-99.99,,,-99.99,,2013-01-05 02:28:00,
2013-01-04 18:36:00,37.0,0.0,30.23,NW,320,10.0,10.0,24,-99.99,,,-99.99,,2013-01-05 02:36:00,
2013-01-04 18:44:00,37.0,0.0,30.23,NW,317,12.0,12.0,23,-99.99,,,-99.99,,2013-01-05 02:44:00,
2013-01-04 18:52:00,37.0,0.0,30.23,NW,318,12.0,12.0,23,-99.99,,,-99.99,,2013-01-05 02:52:00,
2013-01-04 19:00:00,36.0,0.0,30.23,NW,321,10.0,10.0,25,-99.99,,,-99.99,,2013-01-05 03:00:00,
2013-01-04 19:08:00,35.0,0.0,30.23,NW,315,9.0,12.0,23,-99.99,,,-99.99,,2013-01-05 03:08:00,
2013-01-04 19:16:00,34.0,0.0,30.24,NW,313,12.0,12.0,24,-99.99,,,-99.99,,2013-01-05 03:16:00,
2013-01-04 19:24:00,33.0,0.0,30.24,NW,310,13.0,13.0,25,-99.99,,,-99.99,,2013-01-05 03:24:00,
2013-01-04 19:32:00,32.0,0.0,30.24,West,266,14.0,14.0,29,-99.99,,,-99.99,,2013-01-05 03:32:00,
2013-01-04 19:40:00,32.0,0.0,30.24,NW,314,13.0,13.0,29,-99.99,,,-99.99,,2013-01-05 03:40:00,
2013-01-04 19:48:00,32.0,0.0,30.24,NW,323,10.0,10.0,27,-99.99,,,-99.99,,2013-01-05 03:48:00,
2013-01-04 19:56:00,31.0,0.0,30.24,WNW,284,10.0,12.0,27,-99.99,,,-99.99,,2013-01-05 03:56:00,
2013-01-04 20:04:00,31.0,0.0,30.24,NW,325,12.0,12.0,27,-99.99,,,-99.99,,2013-01-05 04:04:00,
2013-01-04 20:12:00,31.0,0.0,30.24,NW,315,9.0,10.0,29,-99.99,,,-99.99,,2013-01-05 04:12:00,
2013-01-04 20:20:00,31.0,0.0,30.24,NW,322,9.0,10.0,29,-99.99,,,-99.99,,2013-01-05 04:20:00,
2013-01-04 20:28:00,31.0,0.0,30.24,WNW,290,9.0,10.0,29,-99.99,,,-99.99,,2013-01-05 04:28:00,
2013-01-04 20:36:00,31.0,0.0,30.24,NW,320,8.0,8.0,29,-99.99,,,-99.99,,2013-01-05 04:36:00,
2013-01-04 20:44:00,31.0,0.0,30.25,NW,310,0.0,0.0,30,-99.99,,,-99.99,,2013-01-05 04:44:00,
2013-01-04 20:52:00,30.0,0.0,30.25,NW,309,5.0,6.0,30,-99.99,,,-99.99,,2013-01-05 04:52:00,
2013-01-04 21:00:00,30.0,0.0,30.26,NW,308,3.0,3.0,29,-99.99,,,-99.99,,2013-01-05 05:00:00,
2013-01-04 21:04:00,30.0,0.0,30.26,NW,313,0.0,0.0,31,-99.99,,,-99.99,,2013-01-05 05:04:00,
2013-01-04 21:12:00,31.0,0.0,30.26,WNW,299,13.0,13.0,31,-99.99,,,-99.99,,2013-01-05 05:12:00,
2013-01-04 21:20:00,31.0,0.0,30.26,WNW,298,14.0,14.0,28,-99.99,,,-99.99,,2013-01-05 05:20:00,
2013-01-04 21:24:00,31.0,0.0,30.26,NW,318,12.0,12.0,28,-99.99,,,-99.99,,2013-01-05 05:24:00,
2013-01-04 21:32:00,30.0,0.0,30.26,WNW,293,9.0,10.0,30,-99.99,,,-99.99,,2013-01-05 05:32:00,
2013-01-04 21:40:00,30.0,0.0,30.26,NW,318,9.0,9.0,31,-99.99,,,-99.99,,2013-01-05 05:40:00,
2013-01-04 21:48:00,30.0,0.0,30.26,NW,312,10.0,10.0,29,-99.99,,,-99.99,,2013-01-05 05:48:00,
2013-01-04 21:56:00,30.0,0.0,30.26,NW,310,12.0,12.0,33,-99.99,,,-99.99,,2013-01-05 05:56:00,
2013-01-04 22:04:00,30.0,0.0,30.26,West,277,13.0,14.0,32,-99.99,,,-99.99,,2013-01-05 06:04:00,
2013-01-04 22:12:00,30.0,0.0,30.26,NW,320,10.0,10.0,29,-99.99,,,-99.99,,2013-01-05 06:12:00,
2013-01-04 22:20:00,30.0,0.0,30.27,NW,320,10.0,10.0,29,-99.99,,,-99.99,,2013-01-05 06:20:00,
2013-01-04 22:28:00,29.0,0.0,30.27,NW,313,12.0,12.0,31,-99.99,,,-99.99,,2013-01-05 06:28:00,
2013-01-04 22:36:00,29.0,0.0,30.27,WNW,297,12.0,12.0,30,-99.99,,,-99.99,,2013-01-05 06:36:00,
2013-01-04 22:44:00,28.0,0.0,30.27,WNW,298,10.0,12.0,33,-99.99,,,-99.99,,2013-01-05 06:44:00,
2013-01-04 22:52:00,28.0,0.0,30.27,WNW,302,13.0,13.0,31,-99.99,,,-99.99,,2013-01-05 06:52:00,
2013-01-04 23:00:00,28.0,0.0,30.27,WNW,300,9.0,13.0,31,-99.99,,,-99.99,,2013-01-05 07:00:00,
2013-01-04 23:08:00,28.0,0.0,30.27,NW,317,14.0,14.0,33,-99.99,,,-99.99,,2013-01-05 07:08:00,
2013-01-04 23:16:00,28.0,0.0,30.27,West,278,13.0,13.0,33,-99.99,,,-99.99,,2013-01-05 07:16:00,
2013-01-04 23:24:00,29.0,0.0,30.27,WNW,298,13.0,13.0,31,-99.99,,,-99.99,,2013-01-05 07:24:00,
2013-01-04 23:32:00,29.0,0.0,30.26,WNW,300,9.0,10.0,33,-99.99,,,-99.99,,2013-01-05 07:32:00,
2013-01-04 23:40:00,28.0,0.0,30.26,NW,306,12.0,13.0,33,-99.99,,,-99.99,,2013-01-05 07:40:00,
2013-01-04 23:48:00,29.0,0.0,30.26,West,279,0.0,6.0,31,-99.99,,,-99.99,,2013-01-05 07:48:00,
2013-01-04 23:56:00,29.0,0.0,30.26,NW,315,8.0,9.0,31,-99.99,,,-99.99,,2013-01-05 07:56:00,